This is the latest recevied weather packets stored in our database for station/object KD0RII. If no packets are shown the sender has not sent any weather packets the latest 1 day(s).
| Time | Temp. | Humidity | Pressure | Rain* | Wind** | Luminosity | Snow |
|---|---|---|---|---|---|---|---|
| 1778041999 | 8.89° C | 78% | 1016.4 hPa | 0 mm | - | 0 W/m² | - |
| 1778041697 | 8.89° C | 78% | 1016.3 hPa | 0 mm | - | 0 W/m² | - |
| 1778041396 | 8.89° C | 77% | 1016.5 hPa | 0 mm | - | 0 W/m² | - |
| 1778041095 | 8.89° C | 76% | 1016.3 hPa | 0 mm | - | 0 W/m² | - |
| 1778040791 | 8.89° C | 77% | 1016.2 hPa | 1.27 mm | - | 0 W/m² | - |
| 1778040488 | 9.44° C | 77% | 1016.2 hPa | 1.27 mm | - | 0 W/m² | - |
| 1778039882 | 9.44° C | 78% | 1016.2 hPa | 0 mm | - | 0 W/m² | - |
| 1778039579 | 9.44° C | 77% | 1015.8 hPa | 0 mm | - | 0 W/m² | - |
| 1778039276 | 9.44° C | 76% | 1016.2 hPa | 0 mm | - | 0 W/m² | - |
| 1778038973 | 10° C | 74% | 1015.8 hPa | 0 mm | - | 0 W/m² | - |
| 1778038670 | 9.44° C | 70% | 1015.9 hPa | 0 mm | - | 0 W/m² | - |
| 1778038367 | 9.44° C | 74% | 1016 hPa | 0 mm | - | 0 W/m² | - |
| 1778038064 | 9.44° C | 78% | 1015.9 hPa | 0 mm | - | 0 W/m² | - |
| 1778037761 | 9.44° C | 85% | 1015.6 hPa | 0 mm | - | 0 W/m² | - |
| 1778037457 | 10° C | 87% | 1015.3 hPa | 0 mm | - | 0 W/m² | - |
| 1778037155 | 9.44° C | 87% | 1015.2 hPa | 0 mm | - | 0 W/m² | - |
| 1778036853 | 9.44° C | 88% | 1015.4 hPa | 0 mm | - | 0 W/m² | - |
| 1778036241 | 9.44° C | 89% | 1015.1 hPa | 0 mm | - | 0 W/m² | - |
| 1778035937 | 9.44° C | 90% | 1015.2 hPa | 0 mm | - | 0 W/m² | - |
| 1778035634 | 9.44° C | 90% | 1015.1 hPa | 0 mm | - | 0 W/m² | - |
| 1778035331 | 10° C | 90% | 1014.8 hPa | 0 mm | - | 0 W/m² | - |
| 1778034725 | 10° C | 90% | 1014.8 hPa | 0 mm | - | 0 W/m² | - |
| 1778034422 | 10° C | 90% | 1014.6 hPa | 0 mm | - | 0 W/m² | - |
| 1778034119 | 9.44° C | 89% | 1014.5 hPa | 0 mm | - | 0 W/m² | - |
| 1778033817 | 9.44° C | 89% | 1014.4 hPa | 0 mm | - | 0 W/m² | - |
* Rain latest hour (hover to see other rain measurements)
** Current wind speed in m/s (hover to see current wind gust speed)